METEOR PRIRODA (12585 NORAD) Tracking and Keplerian Element Data

This shows tracking and keplerian element data for the satellite.

Feedback or suggestion? Click here.




ElementValue
Catalog12585
NameMETEOR PRIRODA
Epoch Orbit21094
Epoch Day15.89007818
Epoch Year2022
RAAN19.1482
Inclination97.5814
Eccentricity0.0012563
Argument of Perigee316.3633
Mean Anonmoly43.6609
Mean Motion15.22894826
Decay Rate2.955E-05
L11 12585U 81065A 22015.89007818 .00002955 00000+0 12897-3 0 9992
L22 12585 97.5814 19.1482 0012563 316.3633 43.6609 15.22894826210945

Live tracking and technical data element details for METEOR PRIRODA (NORAD 12585). METEOR PRIRODA can be tracked NOW for your location showing map with azimuth and elevation plus other details from your city location.

Track the satellite on the map from your city or location and see movement details for azimuth, elevation, latitude, longitude, range, height, and movement on the map or in text.







IsCatalogInMostPopularTable: catalog: 12585, numindb: 240
Update: records affected: 1



GetName: 12585 METEOR PRIRODA

Hit Count: updated at: Mon, 17 Jan 2022 01:05:54 GMT